EA6AMI-5 Weather Reports


Display with metric or nautical units.
time (UTC)temp
F
wind
direction
speed
MPH
gust
MPH
rain 1hr
in
rain 24hr
in
rain mn
in
humidity
%
barometer
mb
20260506223603 56 117 3.0 5.0 0.00 0.18 0.00 89 1013.4
20260506222703 57 118 1.0 5.0 0.00 0.18 0.00 89 1013.3
20260506221803 57 56 1.0 4.0 0.00 0.18 0.00 90 1013.2
20260506220903 57 110 1.0 2.0 0.00 0.18 0.00 90 1013.4
20260506220003 57 88 1.0 2.0 0.00 0.18 0.00 90 1013.4
20260506215403 57 109 2.0 4.0 0.00 0.18 0.18 90 1013.4
20260506214503 57 77 2.0 4.0 0.00 0.18 0.18 91 1013.4
20260506213603 56 91 2.0 4.0 0.00 0.18 0.18 90 1013.5
20260506212703 57 117 2.0 3.0 0.00 0.18 0.18 90 1013.3
20260506211803 57 87 2.0 3.0 0.00 0.18 0.18 90 1013.7
20260506210903 57 88 2.0 4.0 0.00 0.18 0.18 89 1013.5
20260506210004 58 118 3.0 6.0 0.00 0.18 0.18 89 1013.8
20260506205404 58 118 1.0 4.0 0.00 0.18 0.18 89 1013.5
20260506204504 58 85 1.0 3.0 0.00 0.18 0.18 88 1013.6
20260506203603 58 88 2.0 3.0 0.00 0.18 0.18 88 1013.5
20260506202704 58 99 1.0 2.0 0.00 0.18 0.18 87 1013.2
20260506201803 58 111 2.0 3.0 0.00 0.18 0.18 87 1013.3
20260506200903 59 88 1.0 2.0 0.00 0.18 0.18 86 1013.4
20260506200004 59 55 2.0 3.0 0.00 0.18 0.18 87 1013.2
20260506195403 59 60 1.0 2.0 0.00 0.18 0.18 87 1013.2
20260506194503 59 96 1.0 2.0 0.00 0.18 0.18 88 1013.0
20260506193604 59 56 2.0 4.0 0.00 0.18 0.18 88 1012.7
20260506192703 60 56 3.0 4.0 0.00 0.18 0.18 86 1012.9
20260506191803 60 122 1.0 4.0 0.00 0.18 0.18 86 1012.7
20260506190904 61 100 1.0 2.0 0.00 0.18 0.18 85 1012.5
20260506190004 61 125 1.0 3.0 0.00 0.18 0.18 84 1012.4
20260506185403 62 144 2.0 4.0 0.00 0.18 0.18 82 1012.4
20260506184504 62 71 1.0 3.0 0.00 0.18 0.18 81 1012.1
20260506183604 62 45 2.0 5.0 0.00 0.18 0.18 80 1012.2
20260506182704 63 61 2.0 4.0 0.00 0.18 0.18 80 1012.3
20260506181803 64 84 2.0 4.0 0.00 0.18 0.18 78 1012.1
20260506180903 64 139 2.0 4.0 0.00 0.18 0.18 78 1012.2
20260506180004 64 118 2.0 4.0 0.00 0.18 0.18 74 1011.9
20260506175404 64 88 2.0 5.0 0.00 0.18 0.18 74 1012.0
20260506174503 65 106 1.0 4.0 0.00 0.18 0.18 73 1011.9
20260506173603 65 44 1.0 3.0 0.00 0.18 0.18 75 1012.1
20260506172703 65 36 2.0 6.0 0.00 0.18 0.18 77 1012.0
20260506171803 65 62 3.0 6.0 0.00 0.18 0.18 76 1011.9
20260506170903 64 53 3.0 7.0 0.00 0.18 0.18 77 1011.9
20260506170003 64 98 3.0 6.0 0.00 0.18 0.18 80 1011.8
20260506165403 64 120 3.0 5.0 0.00 0.18 0.18 80 1012.0
20260506164504 64 131 3.0 6.0 0.00 0.18 0.18 79 1012.1
20260506163603 65 138 3.0 6.0 0.00 0.18 0.18 78 1012.0
20260506162703 64 205 2.0 4.0 0.00 0.18 0.18 75 1011.8
20260506161803 63 23 3.0 9.0 0.00 0.18 0.18 79 1011.8
20260506160903 63 71 3.0 9.0 0.00 0.18 0.18 80 1011.5
20260506160003 61 58 2.0 4.0 0.01 0.18 0.18 77 1011.8
20260506155403 62 101 2.0 4.0 0.03 0.18 0.18 78 1011.9
20260506154503 62 38 2.0 3.0 0.04 0.18 0.18 78 1012.1
20260506153603 61 41 2.0 5.0 0.04 0.18 0.18 74 1012.1
20260506152703 61 32 2.0 5.0 0.05 0.18 0.18 80 1012.2
20260506151803 61 50 4.0 8.0 0.07 0.18 0.18 82 1012.1
20260506150903 60 37 4.0 9.0 0.13 0.18 0.18 83 1011.7
20260506150004 61 45 4.0 6.0 0.13 0.17 0.17 87 1012.0
20260506145403 61 28 3.0 6.0 0.13 0.15 0.15 87 1012.1
20260506144504 61 36 2.0 4.0 0.12 0.14 0.14 87 1012.1
20260506143603 61 37 2.0 6.0 0.11 0.13 0.13 86 1012.3
20260506142704 61 54 3.0 6.0 0.11 0.13 0.13 85 1012.1
20260506141803 62 65 1.0 4.0 0.09 0.10 0.10 83 1012.2
20260506140903 62 67 2.0 4.0 0.05 0.05 0.05 82 1012.7
20260506140004 62 39 3.0 6.0 0.03 0.03 0.03 83 1012.5
20260506135403 62 38 5.0 9.0 0.02 0.02 0.02 83 1012.4
20260506134503 63 46 5.0 9.0 0.02 0.02 0.02 83 1012.0
20260506133603 64 74 5.0 9.0 0.02 0.02 0.02 83 1012.3
20260506132703 64 72 5.0 10.0 0.02 0.02 0.02 80 1012.4
20260506131803 65 64 5.0 11.0 0.01 0.01 0.01 77 1012.4
20260506130903 65 60 5.0 10.0 0.00 0.00 0.00 73 1012.4
20260506130003 64 103 7.0 14.0 0.00 0.00 0.00 73 1012.2
20260506125403 65 101 6.0 13.0 0.00 0.00 0.00 70 1012.4
20260506124504 65 82 7.0 15.0 0.00 0.00 0.00 68 1012.1
20260506123603 66 103 7.0 16.0 0.00 0.00 0.00 68 1012.1
20260506122703 67 110 6.0 13.0 0.00 0.00 0.00 63 1011.9
20260506121803 68 103 6.0 15.0 0.00 0.00 0.00 62 1011.6
20260506120904 69 115 4.0 12.0 0.00 0.00 0.00 60 1011.7
20260506120003 69 56 4.0 9.0 0.00 0.00 0.00 60 1011.5
20260506115403 68 33 5.0 10.0 0.00 0.00 0.00 62 1011.2
20260506114503 69 21 5.0 9.0 0.00 0.00 0.00 61 1011.5
20260506113603 70 39 5.0 11.0 0.00 0.00 0.00 60 1011.6
20260506112703 72 77 4.0 11.0 0.00 0.00 0.00 52 1011.4
20260506111803 72 91 3.0 9.0 0.00 0.00 0.00 47 1011.6
20260506110903 73 146 4.0 8.0 0.00 0.00 0.00 44 1011.6
20260506110004 73 137 5.0 10.0 0.00 0.00 0.00 46 1011.9
20260506105403 73 146 5.0 11.0 0.00 0.00 0.00 46 1012.0
20260506104504 72 143 4.0 15.0 0.00 0.00 0.00 48 1011.8
20260506103603 71 150 4.0 11.0 0.00 0.00 0.00 50 1012.0
20260506102704 71 165 5.0 10.0 0.00 0.00 0.00 51 1012.0
20260506101803 71 153 4.0 8.0 0.00 0.00 0.00 50 1012.2
20260506100904 70 155 4.0 11.0 0.00 0.00 0.00 52 1012.0
20260506100004 71 165 4.0 11.0 0.00 0.00 0.00 52 1012.3
20260506095403 71 156 4.0 10.0 0.00 0.00 0.00 53 1012.1
20260506094503 70 139 5.0 10.0 0.00 0.00 0.00 54 1012.0
20260506093604 70 120 3.0 10.0 0.00 0.00 0.00 53 1012.2
20260506092703 69 109 4.0 11.0 0.00 0.00 0.00 57 1012.0
20260506091803 69 85 4.0 8.0 0.00 0.00 0.00 56 1012.2
20260506090903 69 138 4.0 12.0 0.00 0.00 0.00 58 1012.1
20260506090004 68 137 4.0 8.0 0.00 0.00 0.00 56 1012.0
20260506085403 68 126 3.0 8.0 0.00 0.00 0.00 56 1012.1
20260506084503 67 161 3.0 7.0 0.00 0.00 0.00 59 1012.0
20260506083603 68 124 3.0 7.0 0.00 0.00 0.00 59 1012.4
20260506082703 67 137 4.0 9.0 0.00 0.00 0.00 60 1012.2
20260506081804 67 145 3.0 9.0 0.00 0.00 0.00 64 1012.3
20260506080903 66 136 3.0 9.0 0.00 0.00 0.00 64 1012.3
20260506072704 64 118 3.0 5.0 0.00 0.00 0.00 70 1012.3
20260506071803 64 114 3.0 6.0 0.00 0.00 0.00 72 1012.3
20260506070904 63 123 4.0 7.0 0.00 0.00 0.00 77 1012.1
20260506061803 58 107 2.0 5.0 0.00 0.00 0.00 86 1012.5
20260506060904 58 67 2.0 4.0 0.00 0.00 0.00 87 1012.5
20260506050903 54 120 2.0 5.0 0.00 0.00 0.00 85 1011.9
20260506044504 54 129 2.0 5.0 0.00 0.00 0.00 83 1011.8
20260506043603 54 101 2.0 4.0 0.00 0.00 0.00 82 1011.4
20260506042703 55 94 1.0 3.0 0.00 0.00 0.00 83 1011.5
20260506041803 54 143 2.0 3.0 0.00 0.00 0.00 86 1011.4
20260506040903 54 123 3.0 6.0 0.00 0.00 0.00 84 1011.6
20260506040004 54 126 3.0 6.0 0.00 0.00 0.00 84 1011.4
20260506035403 55 132 2.0 6.0 0.00 0.00 0.00 84 1011.2
20260506034504 55 147 2.0 4.0 0.00 0.00 0.00 86 1011.2
20260506033603 54 126 2.0 5.0 0.00 0.00 0.00 86 1011.2
20260506032703 54 27 3.0 7.0 0.00 0.00 0.00 86 1011.1
20260506031803 54 82 3.0 7.0 0.00 0.00 0.00 86 1011.2
20260506030903 54 114 2.0 5.0 0.00 0.00 0.00 85 1010.9
20260506030003 55 112 3.0 6.0 0.00 0.00 0.00 84 1010.9
20260506025403 55 130 3.0 7.0 0.00 0.00 0.00 83 1010.9
20260506024503 56 62 3.0 5.0 0.00 0.00 0.00 84 1011.0
20260506023603 55 69 3.0 6.0 0.00 0.00 0.00 83 1011.1
20260506022704 56 128 3.0 5.0 0.00 0.00 0.00 83 1011.1
20260506021803 56 50 2.0 5.0 0.00 0.00 0.00 84 1010.9
20260506020903 56 99 2.0 5.0 0.00 0.00 0.00 82 1011.1
20260506020004 56 134 2.0 6.0 0.00 0.00 0.00 80 1011.1
20260506015403 56 149 3.0 5.0 0.00 0.00 0.00 79 1011.1
20260506014503 58 161 3.0 8.0 0.00 0.00 0.00 79 1011.0
20260506013603 57 341 2.0 7.0 0.00 0.00 0.00 81 1011.0
20260506012704 57 80 2.0 5.0 0.00 0.00 0.00 81 1011.1
20260506011803 58 148 2.0 3.0 0.00 0.00 0.00 79 1011.2
20260506010903 58 98 1.0 3.0 0.00 0.00 0.00 80 1011.2
20260506010004 58 137 2.0 3.0 0.00 0.00 0.00 80 1011.2
20260506005403 58 117 1.0 3.0 0.00 0.00 0.00 80 1011.1
20260506004504 58 73 1.0 5.0 0.00 0.00 0.00 80 1011.6
20260506003604 59 132 3.0 6.0 0.00 0.00 0.00 79 1011.4
20260506002703 60 125 1.0 2.0 0.00 0.00 0.00 77 1011.6
20260506001803 59 152 2.0 4.0 0.00 0.00 0.00 78 1011.7
20260506000904 59 165 1.0 5.0 0.00 0.00 0.00 78 1011.5
20260506000004 60 140 4.0 5.0 0.00 0.00 0.00 78 1011.7
20260505235403 60 123 3.0 6.0 0.00 0.00 0.00 76 1011.9
20260505234504 61 47 3.0 8.0 0.00 0.00 0.00 74 1011.8
20260505233603 60 143 2.0 5.0 0.00 0.00 0.00 77 1011.7
20260505232703 60 118 2.0 8.0 0.00 0.00 0.00 77 1011.8
20260505231803 60 126 4.0 7.0 0.00 0.00 0.00 77 1011.7
20260505230903 60 109 2.0 5.0 0.00 0.00 0.00 78 1011.6
20260505230004 60 135 2.0 6.0 0.00 0.00 0.00 78 1011.8
20260505225403 60 138 3.0 6.0 0.00 0.00 0.00 82 1011.6
20260505224503 60 155 4.0 6.0 0.00 0.00 0.00 81 1011.7